FW1490 Weather Reports


time (UTC)temp
C
wind
direction
speed
KPH
gust
KPH
rain 1hr
cm
rain 24hr
cm
rain mn
cm
humidity
%
barometer
mb
20260508023054 16 174 6.4 11.3 0.00 0.00 0.00 43 1007.2
20260508021601 16 190 8.0 12.9 0.00 0.00 0.00 41 1007.3
20260508020052 17 189 4.8 14.5 0.00 0.00 0.00 39 1007.2
20260508014551 18 178 6.4 12.9 0.00 0.00 0.00 36 1007.0
20260508013048 20 214 3.2 11.3 0.00 0.00 0.00 33 1006.9
20260508011551 21 205 6.4 11.3 0.00 0.00 0.00 30 1006.9
20260508010045 22 233 1.6 8.0 0.00 0.00 0.00 30 1006.9
20260508004544 23 218 3.2 16.1 0.00 0.00 0.00 27 1007.0
20260508003042 23 242 4.8 17.7 0.00 0.00 0.00 26 1007.0
20260508001540 24 222 8.0 20.9 0.00 0.00 0.00 24 1007.2
20260508000044 24 256 9.7 17.7 0.00 0.00 0.00 22 1007.3
20260507234543 24 269 12.9 25.7 0.00 0.00 0.00 22 1007.5
20260507233035 24 242 16.1 22.5 0.00 0.00 0.00 21 1007.6
20260507231534 24 230 16.1 29.0 0.00 0.00 0.00 22 1007.8
20260507230023 24 267 11.3 30.6 0.00 0.00 0.00 21 1008.0
20260507224524 24 244 11.3 20.9 0.00 0.05 0.00 23 1008.1
20260507223019 24 228 11.3 19.3 0.00 0.05 0.00 22 1008.2
20260507221518 24 258 12.9 30.6 0.00 0.05 0.00 22 1008.5
20260507220043 23 252 12.9 20.9 0.00 0.05 0.00 23 1008.8
20260507214545 23 248 16.1 29.0 0.00 0.08 0.00 22 1009.0
20260507213040 23 245 20.9 30.6 0.00 0.08 0.00 23 1009.4
20260507211545 23 296 16.1 25.7 0.00 0.08 0.00 23 1009.6
20260507210030 23 246 12.9 33.8 0.00 0.08 0.00 23 1010.0
20260507204527 23 261 19.3 29.0 0.00 0.10 0.00 25 1010.2
20260507203023 23 238 17.7 35.4 0.00 0.10 0.00 24 1010.4
20260507201519 22 266 12.9 27.4 0.00 0.10 0.00 24 1010.6
20260507200016 22 229 17.7 27.4 0.00 0.10 0.00 24 1010.9
20260507194515 22 222 17.7 30.6 0.00 0.10 0.00 24 1011.1
20260507193048 22 294 16.1 30.6 0.00 0.10 0.00 26 1011.4
20260507191538 22 215 19.3 32.2 0.00 0.10 0.00 26 1011.8
20260507190030 22 261 22.5 35.4 0.00 0.10 0.00 26 1012.1
20260507184527 21 243 16.1 37.0 0.00 0.10 0.00 27 1012.3
20260507183024 21 252 17.7 33.8 0.00 0.10 0.00 28 1012.5
20260507181520 21 226 22.5 35.4 0.00 0.10 0.00 31 1012.7
20260507180018 20 249 27.4 38.6 0.00 0.10 0.00 33 1013.0
20260507174537 20 256 29.0 41.8 0.00 0.13 0.00 31 1013.3
20260507173013 19 250 24.1 37.0 0.00 0.13 0.00 38 1013.5
20260507171505 18 250 27.4 45.1 0.00 0.13 0.00 38 1014.0
20260507170002 18 252 27.4 38.6 0.00 0.13 0.00 45 1014.1
20260507164557 17 230 29.0 38.6 0.00 0.23 0.00 47 1014.4
20260507163054 16 222 25.7 37.0 0.00 0.23 0.00 51 1014.4
20260507161550 15 247 27.4 37.0 0.00 0.23 0.00 54 1014.5
20260507160109 14 254 25.7 35.4 0.00 0.23 0.00 58 1014.8
20260507154540 13 250 24.1 37.0 0.00 0.38 0.00 60 1015.0
20260507153035 12 271 24.1 33.8 0.00 0.38 0.00 66 1015.2
20260507151529 12 254 24.1 35.4 0.00 0.38 0.00 69 1015.4
20260507150025 11 252 25.7 37.0 0.00 0.38 0.00 70 1015.5
20260507144521 10 252 22.5 37.0 0.00 0.46 0.00 73 1015.5
20260507143018 9 252 22.5 38.6 0.00 0.46 0.00 75 1015.7
20260507141509 8 268 20.9 40.2 0.00 0.46 0.00 77 1015.6
20260507140009 7 225 25.7 38.6 0.00 0.46 0.00 79 1015.9
20260507134501 6 263 20.9 30.6 0.00 0.51 0.00 83 1016.1
20260507133104 5 250 20.9 33.8 0.00 0.51 0.00 84 1016.0
20260507131615 4 246 24.1 33.8 0.00 0.51 0.00 86 1016.1
20260507130047 3 251 19.3 27.4 0.00 0.51 0.00 87 1016.0
20260507124551 2 258 20.9 30.6 0.00 0.56 0.00 89 1016.1
20260507123044 1 228 9.7 19.3 0.00 0.56 0.00 89 1016.1
20260507121508 1 244 9.7 14.5 0.00 0.56 0.00 89 1016.2
20260507120006 1 222 8.0 16.1 0.00 0.56 0.00 89 1016.4
20260507114501 1 209 11.3 19.3 0.00 0.61 0.00 90 1016.5
20260507113134 1 254 12.9 19.3 0.00 0.61 0.00 90 1016.6
20260507111558 1 239 14.5 22.5 0.00 0.61 0.00 90 1016.8
20260507110058 1 246 11.3 22.5 0.00 0.61 0.00 90 1016.8
20260507104525 1 237 12.9 19.3 0.00 0.71 0.00 90 1017.0
20260507103022 0 267 12.9 17.7 0.00 0.71 0.00 90 1017.0
20260507101554 0 234 11.3 17.7 0.00 0.71 0.00 90 1017.2
20260507100056 1 215 6.4 14.5 0.00 0.71 0.00 90 1017.4
20260507094518 1 226 8.0 17.7 0.00 0.71 0.00 90 1017.5
20260507093015 1 248 11.3 22.5 0.00 0.71 0.00 90 1017.6
20260507091510 1 236 14.5 22.5 0.00 0.71 0.00 91 1017.9
20260507090007 1 244 12.9 22.5 0.00 0.71 0.00 91 1018.0
20260507084509 0 248 9.7 19.3 0.00 0.76 0.00 91 1017.9
20260507083007 0 238 9.7 17.7 0.00 0.76 0.00 91 1018.3
20260507081558 0 240 8.0 14.5 0.00 0.76 0.00 91 1018.5
20260507080056 0 245 8.0 14.5 0.00 0.76 0.00 91 1018.7
20260507074554 0 254 8.0 16.1 0.00 0.79 0.00 91 1018.9
20260507073057 0 221 4.8 12.9 0.00 0.79 0.00 90 1019.0
20260507071548 1 248 4.8 16.1 0.00 0.79 0.00 91 1019.1
20260507070057 1 256 6.4 16.1 0.00 0.79 0.00 91 1019.3
20260507064546 1 227 8.0 14.5 0.00 0.81 0.00 90 1019.4
20260507063040 1 229 4.8 14.5 0.00 0.81 0.00 90 1019.6
20260507061538 1 216 4.8 12.9 0.00 0.81 0.00 90 1019.8
20260507060037 1 228 4.8 11.3 0.00 0.81 0.00 90 1019.9
20260507054538 1 243 4.8 16.1 0.00 0.84 0.00 90 1019.9
20260507053029 1 224 4.8 11.3 0.00 0.84 0.00 90 1020.1
20260507051627 1 222 1.6 11.3 0.00 0.84 0.00 90 1020.1
20260507050106 1 196 4.8 11.3 0.00 0.84 0.00 90 1020.1
20260507044556 1 198 4.8 9.7 0.00 0.97 0.84 90 1020.2
20260507043050 2 229 4.8 12.9 0.00 0.97 0.84 90 1020.4
20260507041549 2 205 3.2 11.3 0.00 0.97 0.84 90 1020.5
20260507040050 2 202 3.2 11.3 0.00 0.97 0.84 90 1020.5
20260507034548 2 257 6.4 12.9 0.00 1.24 0.84 90 1020.4
20260507033047 2 198 6.4 11.3 0.00 1.24 0.84 89 1020.3
20260507031543 2 209 6.4 11.3 0.00 1.24 0.84 89 1020.3
20260507030045 2 210 4.8 9.7 0.00 1.24 0.84 89 1020.0
20260507024546 2 219 1.6 11.3 0.00 1.30 0.84 88 1020.0